Location: Axtheid
(49.6213°N, 11.8205°E)
Time: 20:34:25
(UTC+00:00)

NOSS 3-1 (A) - Pass Details

Date: 24 January 2021
Orbit: 735 x 1477 km, 63.4° (Epoch: 02 March)

Event Time Altitude Azimuth Distance (km) Brightness Sun altitude
Rises 16:56:25 0° 314° (NW) 3,785 7.0 -9.9°
Reaches altitude 10° 16:58:58 10° 320° (NW) 2,933 6.3 -10.3°
Maximum altitude 17:05:53 52° 36° (NE) 1,507 4.2 -11.4°
Drops below altitude 10° 17:14:01 10° 111° (ESE) 3,437 5.9 -12.7°
Enters shadow 17:15:14 - 114° (ESE) 3,836 6.1 -12.9°
